EN

Hourly Weather South Shields

Today, 24 July, Saturday

Time Temperature Precipitation Wind Pressure Humidity
00:00 +14°C° 0 mm 2 mps 760 mmHg 95%
01:00 +14°C° 0 mm 2 mps 759 mmHg 91%
02:00 +15°C° 0 mm 2 mps 759 mmHg 87%
03:00 +16°C° 0 mm 2 mps 759 mmHg 83%
04:00 +16°C° 0 mm 2 mps 758 mmHg 81%
05:00 +16°C° 0 mm 2 mps 758 mmHg 79%
06:00 +16°C° 0 mm 2 mps 758 mmHg 78%
07:00 +16°C° 0 mm 2 mps 758 mmHg 75%
08:00 +17°C° 0 mm 3 mps 758 mmHg 72%
09:00 +17°C° 0 mm 3 mps 758 mmHg 69%
10:00 +18°C° 0 mm 3 mps 758 mmHg 66%
11:00 +19°C° 0 mm 3 mps 758 mmHg 64%
12:00 +19°C° 0 mm 3 mps 757 mmHg 61%
13:00 +19°C° 0 mm 3 mps 757 mmHg 62%
14:00 +19°C° 0 mm 3 mps 757 mmHg 63%
15:00 +19°C° 0 mm 3 mps 757 mmHg 63%
16:00 +19°C° 0 mm 3 mps 757 mmHg 66%
17:00 +18°C° 0 mm 3 mps 757 mmHg 68%
18:00 +17°C° 0 mm 3 mps 757 mmHg 70%
19:00 +16°C° 0 mm 2 mps 757 mmHg 76%
20:00 +15°C° 0 mm 2 mps 757 mmHg 81%
21:00 +14°C° 0 mm 1 mps 757 mmHg 86%
22:00 +13°C° 0 mm 1 mps 757 mmHg 87%
23:00 +13°C° 0 mm 1 mps 757 mmHg 88%

Tomorrow, 25 July, Sunday

Time Temperature Precipitation Wind Pressure Humidity
00:00 +13°C° 0 mm 1 mps 756 mmHg 89%
01:00 +13°C° 0 mm 1 mps 756 mmHg 88%
02:00 +13°C° 0 mm 2 mps 756 mmHg 88%
03:00 +13°C° 0 mm 2 mps 756 mmHg 87%
04:00 +13°C° 0 mm 2 mps 756 mmHg 85%
05:00 +14°C° 0 mm 2 mps 756 mmHg 83%
06:00 +15°C° 0 mm 2 mps 756 mmHg 80%
07:00 +16°C° 0 mm 2 mps 756 mmHg 76%
08:00 +17°C° 0 mm 3 mps 756 mmHg 73%
09:00 +17°C° 0 mm 3 mps 756 mmHg 69%
10:00 +18°C° 0 mm 3 mps 756 mmHg 66%
11:00 +19°C° 0 mm 4 mps 756 mmHg 63%
12:00 +21°C° 0 mm 4 mps 756 mmHg 60%
13:00 +21°C° 0 mm 4 mps 756 mmHg 60%
14:00 +21°C° 0 mm 4 mps 756 mmHg 60%
15:00 +21°C° 0 mm 5 mps 756 mmHg 59%
16:00 +21°C° 0 mm 4 mps 756 mmHg 63%
17:00 +20°C° 0 mm 4 mps 755 mmHg 66%
18:00 +20°C° 0 mm 4 mps 755 mmHg 70%
19:00 +18°C° 0 mm 4 mps 755 mmHg 76%
20:00 +17°C° 0 mm 4 mps 756 mmHg 82%
21:00 +14°C° 0 mm 3 mps 756 mmHg 89%
22:00 +14°C° 0 mm 3 mps 756 mmHg 89%
23:00 +14°C° 0 mm 3 mps 756 mmHg 89%

Day after tomorrow, 26 July, Monday

Time Temperature Precipitation Wind Pressure Humidity
00:00 +13°C° 0 mm 3 mps 755 mmHg 90%
01:00 +13°C° 0 mm 3 mps 755 mmHg 90%
02:00 +13°C° 0 mm 3 mps 755 mmHg 90%
03:00 +13°C° 0 mm 3 mps 755 mmHg 90%
04:00 +14°C° 0 mm 3 mps 755 mmHg 87%
05:00 +14°C° 0 mm 3 mps 755 mmHg 85%
06:00 +16°C° 0 mm 3 mps 755 mmHg 82%
07:00 +17°C° 0 mm 2 mps 755 mmHg 80%
08:00 +18°C° 0 mm 2 mps 755 mmHg 78%
09:00 +18°C° 0 mm 2 mps 755 mmHg 76%
10:00 +19°C° 0 mm 2 mps 755 mmHg 73%
11:00 +20°C° 0 mm 2 mps 755 mmHg 71%
12:00 +21°C° 0 mm 2 mps 755 mmHg 68%
13:00 +23°C° 0.2 mm 2 mps 755 mmHg 68%
14:00 +23°C° 0.2 mm 2 mps 755 mmHg 67%
15:00 +24°C° 0.2 mm 2 mps 755 mmHg 66%
16:00 +23°C° 0.5 mm 2 mps 754 mmHg 69%
17:00 +21°C° 0.5 mm 2 mps 754 mmHg 73%
18:00 +21°C° 0.5 mm 2 mps 754 mmHg 77%
19:00 +19°C° 0.3 mm 2 mps 754 mmHg 81%
20:00 +19°C° 0.3 mm 1 mps 754 mmHg 85%
21:00 +18°C° 0.3 mm 1 mps 754 mmHg 90%
22:00 +18°C° 0.1 mm 1 mps 754 mmHg 90%
23:00 +16°C° 0.1 mm 1 mps 754 mmHg 89%

27 July, Tuesday

Time Temperature Precipitation Wind Pressure Humidity
00:00 +16°C° 0.1 mm 2 mps 754 mmHg 89%
01:00 +16°C° 0 mm 1 mps 754 mmHg 89%
02:00 +15°C° 0 mm 1 mps 754 mmHg 89%
03:00 +15°C° 0 mm 1 mps 754 mmHg 89%
04:00 +16°C° 0 mm 1 mps 754 mmHg 88%
05:00 +16°C° 0 mm 1 mps 754 mmHg 87%
06:00 +16°C° 0 mm 1 mps 754 mmHg 85%
07:00 +19°C° 0 mm 1 mps 754 mmHg 79%
08:00 +20°C° 0 mm 1 mps 753 mmHg 73%
09:00 +21°C° 0 mm 1 mps 753 mmHg 66%
10:00 +22°C° 0 mm 1 mps 753 mmHg 63%
11:00 +23°C° 0 mm 2 mps 753 mmHg 59%
12:00 +24°C° 0 mm 2 mps 753 mmHg 55%
13:00 +24°C° 0.4 mm 2 mps 753 mmHg 59%
14:00 +23°C° 0.4 mm 2 mps 753 mmHg 64%
15:00 +22°C° 0.4 mm 3 mps 753 mmHg 68%
16:00 +21°C° 0.8 mm 3 mps 753 mmHg 73%
17:00 +20°C° 0.8 mm 3 mps 753 mmHg 77%
18:00 +19°C° 0.8 mm 2 mps 752 mmHg 82%
19:00 +18°C° 0.3 mm 3 mps 753 mmHg 83%
20:00 +17°C° 0.3 mm 3 mps 753 mmHg 85%
21:00 +15°C° 0.3 mm 4 mps 753 mmHg 86%
22:00 +14°C° 0 mm 4 mps 753 mmHg 87%
23:00 +14°C° 0 mm 4 mps 752 mmHg 87%

28 July, Wednesday

Time Temperature Precipitation Wind Pressure Humidity
00:00 +14°C° 0 mm 4 mps 752 mmHg 88%
01:00 +13°C° 0.1 mm 4 mps 752 mmHg 88%
02:00 +13°C° 0.1 mm 4 mps 752 mmHg 89%
03:00 +13°C° 0.1 mm 4 mps 752 mmHg 90%
04:00 +13°C° 0 mm 4 mps 752 mmHg 88%
05:00 +13°C° 0 mm 4 mps 752 mmHg 86%
06:00 +14°C° 0 mm 5 mps 752 mmHg 84%
07:00 +15°C° 0 mm 5 mps 752 mmHg 76%
08:00 +16°C° 0 mm 5 mps 752 mmHg 68%
09:00 +19°C° 0 mm 6 mps 752 mmHg 60%
10:00 +19°C° 0.1 mm 6 mps 751 mmHg 57%
11:00 +20°C° 0.1 mm 7 mps 751 mmHg 55%
12:00 +20°C° 0.1 mm 7 mps 751 mmHg 52%
13:00 +20°C° 0 mm 7 mps 751 mmHg 51%
14:00 +20°C° 0 mm 7 mps 751 mmHg 50%
15:00 +20°C° 0 mm 8 mps 751 mmHg 48%
16:00 +20°C° 0.1 mm 7 mps 751 mmHg 53%
17:00 +18°C° 0.1 mm 7 mps 750 mmHg 58%
18:00 +17°C° 0.1 mm 7 mps 750 mmHg 63%
19:00 +16°C° 0.1 mm 6 mps 750 mmHg 65%
20:00 +15°C° 0.1 mm 6 mps 750 mmHg 68%
21:00 +14°C° 0.1 mm 6 mps 750 mmHg 70%
22:00 +14°C° 0 mm 7 mps 750 mmHg 71%
23:00 +12°C° 0 mm 7 mps 750 mmHg 73%

29 July, Thursday

Time Temperature Precipitation Wind Pressure Humidity
00:00 +11°C° 0 mm 8 mps 750 mmHg 75%
01:00 +11°C° 0 mm 8 mps 750 mmHg 76%
02:00 +11°C° 0 mm 8 mps 750 mmHg 77%
03:00 +11°C° 0 mm 8 mps 750 mmHg 78%
04:00 +11°C° 0 mm 7 mps 750 mmHg 78%
05:00 +11°C° 0 mm 6 mps 750 mmHg 77%
06:00 +13°C° 0 mm 6 mps 751 mmHg 76%
07:00 +14°C° 0.1 mm 6 mps 751 mmHg 73%
08:00 +15°C° 0.1 mm 6 mps 751 mmHg 70%
09:00 +16°C° 0.1 mm 7 mps 750 mmHg 67%
10:00 +16°C° 0.3 mm 7 mps 750 mmHg 67%
11:00 +16°C° 0.3 mm 7 mps 750 mmHg 68%
12:00 +16°C° 0.3 mm 8 mps 750 mmHg 69%
13:00 +17°C° 0.2 mm 8 mps 750 mmHg 66%
14:00 +17°C° 0.2 mm 8 mps 750 mmHg 63%
15:00 +17°C° 0.2 mm 7 mps 750 mmHg 59%
16:00 +17°C° 0.1 mm 7 mps 750 mmHg 61%
17:00 +17°C° 0.1 mm 6 mps 749 mmHg 62%
18:00 +17°C° 0.1 mm 6 mps 749 mmHg 64%
19:00 +15°C° 0 mm 5 mps 749 mmHg 70%
20:00 +14°C° 0 mm 5 mps 749 mmHg 77%
21:00 +13°C° 0 mm 4 mps 749 mmHg 83%
22:00 +13°C° 0 mm 4 mps 749 mmHg 84%
23:00 +13°C° 0 mm 4 mps 749 mmHg 85%
Show more